Regional Weather Roundup
Issued by NWS

Home | Current Version | Previous Version | Graphics & Text | Print | Product List | Glossary On
Versions: 1 2 3 4 5 6 7 8 9 10 11 12 13 14 15 16 17 18 19 20 21 22 23 24 25 26 27 28 29 30 31 32 33 34 35 36 37 38 39 40 41 42 43 44 45 46 47 48 49 50
400
ASUS45 KTFX 272110
RWRMT
MONTANA REGIONAL WEATHER ROUNDUP
NATIONAL WEATHER SERVICE GREAT FALLS MT
300 PM MDT FRI MAY 27 2016

NOTE: "FAIR" INDICATES FEW OR NO CLOUDS BELOW 12000 FEET WITH NO
SIGNIFICANT WEATHER AND/OR OBSTRUCTIONS TO VISIBILITY.

MTZ001>007-043-272200-
WEST OF THE DIVIDE

CITY           SKY/WX    TMP DP  RH WIND       PRES   REMARKS
KALISPELL      CLOUDY    57  42  57 S14       29.92F
MISSOULA       CLOUDY    60  37  42 W9        29.95F
BUTTE          HVY RAIN  43  40  89 NW14      29.96R FOG
MULLAN PASS    CLOUDY    40  31  70 CALM      30.00S
ANACONDA         N/A     46  41  81 CALM      29.94S
DEER LODGE       N/A     48  43  81 W8        29.95R
EUREKA           N/A     61  34  36 S7G18     29.91F
HAMILTON         N/A     57  36  44 W9        29.94S
LIBBY            N/A     57  36  44 W3        29.96S
$$

MTZ008-052>055-272200-
SOUTHWEST MONTANA

CITY           SKY/WX    TMP DP  RH WIND       PRES   REMARKS
BOZEMAN        CLOUDY    59  42  53 S10       29.88F
DILLON         LGT RAIN  49  42  77 NW17      29.91R
W YELLOWSTONE  LGT RAIN  45  37  76 S5G16     29.95S
ENNIS          PTSUNNY   54  43  66 W15       29.95R
$$

MTZ009-010-012-014-046-048-049-054-272200-
EAST SLOPES AND CENTRAL MONTANA

CITY           SKY/WX    TMP DP  RH WIND       PRES   REMARKS
CUT BANK       CLOUDY    56  37  49 W21G29    29.86R
GREAT FALLS    MOSUNNY   66  37  34 W12       29.82F
MALMSTROM AFB  MOSUNNY   66  34  30 W16G25    29.83S
HELENA         CLOUDY    60  41  49 SE6       29.87F
CHOTEAU          N/A     63  37  39 W21       29.85S
$$

MTZ011-013-016-021-045-047-050-051-272200-
NORTH CENTRAL MONTANA

CITY           SKY/WX    TMP DP  RH WIND       PRES   REMARKS
HAVRE          PTSUNNY   68  48  48 VRB6      29.80F
LEWISTOWN      CLOUDY    60  43  53 E21G26    29.87S
N BAR RANCH    DRIZZLE   52  48  87 NW9G15    29.91S
CHINOOK          N/A     66  48  52 E9        29.81F
$$

MTZ017>020-022>027-061-062-272200-
NORTHEAST MONTANA

CITY           SKY/WX    TMP DP  RH WIND       PRES   REMARKS
GLASGOW        CLOUDY    67  46  47 CALM      29.83F
JORDAN           N/A     67  47  48 E8        29.83F
SIDNEY         PTSUNNY   66  52  60 NE10      29.83F
WOLF POINT     PTSUNNY   70  48  45 VRB7      29.83F
PLENTYWOOD       N/A     66  48  52 NE18      29.84F
POPLAR           N/A     66  48  52 CALM      29.83F
$$

MTZ028>42-056>058-272200-
SOUTHCENTRAL AND SOUTHEAST MONTANA

CITY           SKY/WX    TMP DP  RH WIND       PRES   REMARKS
BAKER          CLOUDY    67  46  47 VRB3      29.84F
BILLINGS       MOSUNNY   70  40  33 E7G16     29.81F
LIVINGSTON     MOSUNNY   61  44  53 W14G25    29.86F
MILES CITY     SUNNY     68  47  46 NE6       29.83F
FORSYTH          N/A     64  48  55 E7        29.83F
$$

REGIONAL REPORTS...DAKOTAS

CITY           SKY/WX    TMP DP  RH WIND       PRES   REMARKS
WILLISTON      CLOUDY    66  49  54 E7        29.83F
MINOT          MOSUNNY   71  52  50 VRB6      29.80F
DICKINSON      SUNNY     68  43  40 N9        29.81F
BEACH            N/A     66  43  42 N14       29.86S
CROSBY         RAIN      59  59 100 SE3       29.88S
WATFORD CITY     N/A     64  48  55 NE8       29.83F
BISMARCK       CLOUDY    68  48  48 CALM      29.81F
GRAND FORKS    PTSUNNY   75  55  49 VRB6      29.76F
FARGO          CLOUDY    69  58  67 SE8       29.74R
BUFFALO SD       N/A     64  45  49 N5        29.78F
RAPID CITY     CLOUDY    62  48  60 W6        29.84F
$$

REGIONAL REPORTS...WYOMING/IDAHO/WASHINGTON

CITY           SKY/WX    TMP DP  RH WIND       PRES   REMARKS
GILLETTE       MOSUNNY   66  42  41 VRB6G20   29.85F
SHERIDAN       CLOUDY    66  44  45 W6        29.84F
BUFFALO WY     LGT RAIN  55  48  77 MISG      29.90S
CODY           CLOUDY    63  39  42 SE5       29.83F
YELLOWSTONE LA   N/A     44  37  76 CALM      30.02F
IDAHO FALLS    MOSUNNY   65  39  38 SW16G25   29.90F
SALMON         CLOUDY    55  41  58 N16       29.88R THUNDER
BOISE          SUNNY     65  30  27 NW13      29.96F
SPOKANE        PTSUNNY   58  31  35 SW21G28   29.99S
$$

REGIONAL REPORTS...ALBERTA

CITY           SKY/WX    TMP DP  RH WIND       PRES   REMARKS
CALGARY        CLOUDY    48  46  93 N13       29.79F
LETHBRIDGE     PTSUNNY   63  36  36 SW21G30   29.80F
MEDICINE HAT   TSTM      55  52  88 N2        29.80F
WATERTON GATE    N/A     52  36  54 SW10        N/A
CARDSTON         N/A     57  37  47 SW13G20     N/A
MILK RIVER       N/A     64  39  39 W16G24      N/A
ONEFOUR          N/A     64  48  55 SE14G22     N/A
$$

REGIONAL REPORTS...SASKATCHEWAN

CITY           SKY/WX    TMP DP  RH WIND       PRES   REMARKS
SWIFT CURRENT  PTSUNNY   68  46  45 SE14G21   29.84F
REGINA         CLOUDY    72  52  49 E16G23    29.86S
SASKATOON      PTSUNNY   70  45  40 S8        29.87S
CYPRESS HILLS    N/A     63  45  51 SE10G17     N/A
VAL MARIE        N/A     68  43  40 SE9         N/A
ROCKGLEN         N/A     63  50  63 E3          N/A
$$




USA.gov is the U.S. government's official web portal to all federal, state and local government web resources and services.